Regional Weather Roundup
Issued by NWS

Home | Current Version | Previous Version | Text Only | Print | Product List | Glossary Off
Versions: 1 2 3 4 5 6 7 8 9 10 11 12 13 14 15 16 17 18 19 20 21 22 23 24 25 26 27 28 29 30 31 32 33 34 35 36 37 38 39 40 41 42 43 44 45 46 47 48 49 50

000
ASUS43 KIND 300009
RWRIN

WEATHER ROUNDUP FOR INDIANA
NATIONAL WEATHER SERVICE INDIANAPOLIS IN
800 PM EDT WED OCT 29 2014

NOTE: "FAIR" INDICATES FEW OR NO CLOUDS BELOW 12,000 FEET WITH NO
SIGNIFICANT WEATHER AND/OR OBSTRUCTIONS TO VISIBILITY.

* - STATION DOES NOT REPORT WEATHER SUCH AS PRECIPITATION OR FOG.

+ - STATION NOT QUALITY CONTROLLED BY THE NATIONAL WEATHER SERVICE.
    USE DATA WITH CAUTION...ESPECIALLY DEWPOINT AND RELATIVE
    HUMIDITY OBSERVATIONS.

INZ001>003-010>013-019-020-300100-
NORTHWEST INDIANA

CITY           SKY/WX    TMP DP  RH WIND       PRES   REMARKS
KNOX *+        CLOUDY    45  33  63 W5        30.13R
LA PORTE +     CLOUDY    46  36  69 CALM      30.13R
6HR MIN TEMP:  46; 6HR MAX TEMP:  47;

MICHIGAN CITY+ CLOUDY    46  30  53 NW6       30.13R
MONTICELLO +   CLOUDY    44  34  68 NW3       30.14R
RENSSELAER +   CLOUDY    45  36  70 CALM      30.15R
VALPARAISO     CLOUDY    44  34  67 W6        30.14R
6HR MIN TEMP:  44; 6HR MAX TEMP:  46;


$$

LMZ046-743>745-300100-
SOUTHERN LAKE MICHIGAN

STATION/POSITION TIME  TEMP WIND        PRES
                       AIR  DIR/SP/G
                 (UTC) (F)  (DEG/KT/KT) (MB)
MICHIGAN CITY    0000   48  290/ 10/ 13   N/A

$$

INZ004-005-014>016-021>024-300100-
NORTH CENTRAL INDIANA

CITY           SKY/WX    TMP DP  RH WIND       PRES   REMARKS
ELKHART        CLOUDY    43  39  87 W5        30.12R
GOSHEN         CLOUDY    43  39  86 W5        30.12R
6HR MIN TEMP:  43; 6HR MAX TEMP:  46; 6HR PCP:  0.01;

LOGANSPORT +   CLOUDY    43  32  65 CALM      30.15R
PERU/GRISSOM   CLOUDY    44  37  77 W6        30.13R
6HR MIN TEMP:  44; 6HR MAX TEMP:  47;

ROCHESTER +    CLOUDY    46  34  61 W5        30.13S
SOUTH BEND     CLOUDY    46  34  62 NW5       30.13R
6HR MIN TEMP:  45; 6HR MAX TEMP:  47; 6HR PCP: TRACE;

WARSAW +       CLOUDY    43  34  70 W5        30.12R

$$

INZ006>009-017-018-025>027-300100-
NORTHEAST INDIANA

CITY           SKY/WX    TMP DP  RH WIND       PRES   REMARKS
ANGOLA *+      CLOUDY    43  37  81 W5        30.10R
AUBURN +       CLOUDY    43  37  81 W5        30.12R
FORT WAYNE     CLOUDY    45  35  68 NW7       30.13R
6HR MIN TEMP:  45; 6HR MAX TEMP:  48;

HUNTINGTON +   CLOUDY   N/A N/A N/A W5        30.12S

$$

INZ028-029-035-036-043>045-051>053-300100-
WEST CENTRAL INDIANA

CITY           SKY/WX    TMP DP  RH WIND       PRES   REMARKS
GREENCASTLE +  CLOUDY    45  34  65 NW7       30.16R
LAFAYETTE      CLOUDY    44  34  67 W3        30.16R
6HR MIN TEMP:  44; 6HR MAX TEMP:  47;

TERRE HAUTE    CLOUDY    48  35  60 N6        30.16R
6HR MIN TEMP:  48; 6HR MAX TEMP:  53;


$$

INZ030>032-037>040-046>048-054>057-064-065-300100-
CENTRAL INDIANA

CITY           SKY/WX    TMP DP  RH WIND       PRES   REMARKS
CP ATTERBURY + CLOUDY    46  34  61 NW9       30.15R
COLUMBUS       CLOUDY    46  37  71 N9        30.14
FRANKFORT +    CLOUDY    44  35  69 W5        30.16R
GREENWOOD *+   CLOUDY    46  32  57 NW10      30.15R
INDIANAPOLIS   CLOUDY    46  33  60 NW9       30.14R
6HR MIN TEMP:  46; 6HR MAX TEMP:  54;

-EAGLE CREEK   CLOUDY    46  34  62 NW12      30.14R
6HR MIN TEMP:  46; 6HR MAX TEMP:  52;

KOKOMO *+      CLOUDY    45  34  65 W7        30.15R
MARION +       CLOUDY    44  33  67 W5        30.14R
MT COMFORT *+  CLOUDY    46  27  46 NW12      30.14R
SHELBYVILLE    CLOUDY    49  34  56 NW8       30.13R
6HR MIN TEMP:  48; 6HR MAX TEMP:  57;

ZIONSVILLE +   CLOUDY    45  32  60 W8        30.15R
6HR MIN TEMP:  45; 6HR MAX TEMP:  49;


$$

INZ033-034-041-042-049-050-058-059-300100-
EAST CENTRAL INDIANA

CITY           SKY/WX    TMP DP  RH WIND       PRES   REMARKS
MUNCIE         CLOUDY    45  35  68 NW8       30.13R
6HR MIN TEMP:  45; 6HR MAX TEMP:  48;


$$

INZ060-061-067>069-081>083-085>088-300100-
SOUTHWEST INDIANA

CITY           SKY/WX    TMP DP  RH WIND       PRES   REMARKS
EVANSVILLE     CLEAR     52  36  54 N5        30.15R
6HR MIN TEMP:  52; 6HR MAX TEMP:  61;

HUNTINGBURG *+ CLEAR     48  34  57 N5        30.15R
6HR MIN TEMP:  48; 6HR MAX TEMP:  61;

WASHINGTON +   CLOUDY    47  38  69 NW6       30.14S
6HR MIN TEMP:  47; 6HR MAX TEMP:  57;


$$

INZ062-063-066-070>080-084-089>092-300100-
SOUTH CENTRAL AND SOUTHEAST INDIANA

CITY           SKY/WX    TMP DP  RH WIND       PRES   REMARKS
BLOOMINGTON    CLOUDY    49  35  58 N7        30.14R
6HR MIN TEMP:  49; 6HR MAX TEMP:  56;

SEYMOUR +      PTCLDY    48  36  61 NW7       30.13

$$




USA.gov is the U.S. government's official web portal to all federal, state and local government web resources and services.